Location: Knobs
(40.8333°S, 175.2333°E)
Time: 02:57:56
(UTC+00:00)

Cosmos 2233 Rocket - Pass Details

Date: 12 June 2024
Orbit: 952 x 990 km, 82.9° (Epoch: 22 July)

Event Time Altitude Azimuth Distance (km) Brightness Sun altitude
Exits shadow 17:33:57 46° 241° (WSW) 1,276 4.2 -23.2°
Maximum altitude 17:34:58 51° 271° (W) 1,206 4.0 -23.0°
Drops below altitude 10° 17:40:55 10° 345° (NNW) 2,705 6.3 -21.9°
Sets 17:43:28 0° 349° (N) 3,649 7.0 -21.4°
